Home > Weather > Wallisellen > Past weeks

Flag for Switzerland Past Weather in Wallisellen, Zurich, Switzerland — Yesterday and Last 2 Weeks

Now
76 °F

Mild.


Feels Like: 78 °F
Forecast: 61 / 78 °F
Wind: 2 mph from Northeast

Location: Zuerich-Fluntern

Current Time: Jul 24, 2016 at 4:53:58 PM

Latest Report: Jul 24, 2016 at 4:00 PM


Visibility: N/A

Pressure: 30.03 "Hg

Humidity: 54%

Dew Point: 58 °F

Location of WallisellenLocation

Past Weather in Wallisellen — Graph

°F

Wallisellen Temperature Yesterday

Maximum temperature yesterday: 74 °F (at 5:00 PM)
Minimum temperature yesterday: 62 °F (at 6:00 AM)
Average temperature yesterday: 68 °F

High & Low Weather Summary for the Past Weeks

 TemperatureHumidityPressure
High88 °F (Jul 20, 5:00 PM)100% (Jul 11, 11:00 AM)30.37 "Hg (Jul 11, 11:00 AM)
Low47 °F (Jul 16, 5:00 AM)32% (Jul 20, 7:00 PM)29.82 "Hg (Jul 10, 7:00 PM)
Average66 °F74%30.07 "Hg
* Reported Jul 9 3:00 PM — Jul 24 3:00 PM, Wallisellen, Weather by CustomWeather, © 2016

Note: Actual official high and low records may vary slightly from our data, if they occured in-between our weather recording intervals... More about our weather records

Advertising

Wallisellen Weather History for the Previous 24 Hours

Scroll right to see more
 ConditionsComfort  
Time TempWeatherWind HumidityBarometerVisibility
3:00 PM
Sun, Jul 24
77 °FWarm.3 mph55%30.03 "HgN/A
2:00 PM75 °FPartly sunny.1 mph62%30.05 "HgN/A
1:00 PM75 °FMild.2 mph62%30.05 "HgN/A
12:00 PM71 °FMild.3 mph70%30.06 "HgN/A
11:00 AM71 °FMild.2 mph69%30.07 "HgN/A
10:00 AM68 °FMild.2 mph75%30.09 "HgN/A
9:00 AM65 °FMild.2 mph86%30.10 "HgN/A
8:00 AM64 °FMild.3 mph92%30.10 "HgN/A
7:00 AM64 °FMild.No wind92%30.10 "HgN/A
6:00 AM64 °FMild.1 mph92%30.10 "HgN/A
5:00 AM63 °FMild.1 mph92%30.10 "HgN/A
4:00 AM64 °FMild.1 mph90%30.10 "HgN/A
3:00 AM64 °FMild.2 mph89%30.10 "HgN/A
2:00 AM64 °FMild.3 mph89%30.11 "HgN/A
1:00 AM65 °FMild.2 mph87%30.11 "HgN/A
12:00 AM68 °FMild.1 mph81%30.09 "HgN/A
11:00 PM
Sat, Jul 23
68 °FMild.2 mph78%30.08 "HgN/A
10:00 PM70 °FMild.2 mph73%30.06 "HgN/A
9:00 PM71 °FMild.5 mph68%30.03 "HgN/A
8:00 PM73 °FPartly sunny.6 mph62%30.01 "HgN/A
7:00 PM74 °FMild.6 mph65%30.00 "HgN/A
6:00 PM73 °FMild.5 mph64%30.00 "HgN/A
5:00 PM74 °FMild.3 mph67%30.01 "HgN/A
4:00 PM72 °FMild.1 mph65%30.01 "HgN/A
Weather by CustomWeather, © 2016

See weather overviewHow to use our weather pages